Time,TemperatureF,DewpointF,PressureIn,WindDirection,WindDirectionDegrees,WindSpeedMPH,WindSpeedGustMPH,Humidity,HourlyPrecipIn,Conditions,Clouds,dailyrainin,SoftwareType,DateUTC
2015-05-25 00:02:00,71.0,55.0,-100.00,ESE,105,1.0,3.0,57,-99.99,,,-99.99,,2015-05-25 04:02:00,
2015-05-25 00:11:00,71.0,55.0,-100.00,ESE,105,1.0,2.0,57,-99.99,,,-99.99,,2015-05-25 04:11:00,
2015-05-25 00:21:00,70.0,55.0,-100.00,East,100,1.0,3.0,59,-99.99,,,-99.99,,2015-05-25 04:21:00,
2015-05-25 00:31:00,69.0,55.0,-100.00,East,85,1.0,2.0,61,-99.99,,,-99.99,,2015-05-25 04:31:00,
2015-05-25 00:41:00,68.0,56.0,-100.00,East,100,2.0,3.0,64,-99.99,,,-99.99,,2015-05-25 04:41:00,
2015-05-25 00:51:00,68.0,56.0,-100.00,ESE,110,1.0,3.0,64,-99.99,,,-99.99,,2015-05-25 04:51:00,
2015-05-25 01:02:00,69.0,55.0,-100.00,SE,125,2.0,4.0,60,-99.99,,,-99.99,,2015-05-25 05:02:00,
2015-05-25 01:11:00,69.0,55.0,-100.00,ESE,115,1.0,3.0,61,-99.99,,,-99.99,,2015-05-25 05:11:00,
2015-05-25 01:21:00,68.0,55.0,-100.00,East,95,1.0,3.0,61,-99.99,,,-99.99,,2015-05-25 05:21:00,
2015-05-25 01:32:00,68.0,55.0,-100.00,ESE,110,1.0,2.0,61,-99.99,,,-99.99,,2015-05-25 05:32:00,
2015-05-25 01:42:00,68.0,54.0,-100.00,East,90,1.0,2.0,61,-99.99,,,-99.99,,2015-05-25 05:42:00,
2015-05-25 01:51:00,68.0,55.0,-100.00,East,95,1.0,2.0,63,-99.99,,,-99.99,,2015-05-25 05:51:00,
2015-05-25 02:02:00,67.0,55.0,-100.00,ENE,75,0.0,1.0,66,-99.99,,,-99.99,,2015-05-25 06:02:00,
2015-05-25 02:11:00,66.0,56.0,-100.00,ENE,75,1.0,2.0,68,-99.99,,,-99.99,,2015-05-25 06:11:00,
2015-05-25 02:21:00,65.0,56.0,-100.00,ENE,75,2.0,2.0,72,-99.99,,,-99.99,,2015-05-25 06:21:00,
2015-05-25 02:31:00,65.0,55.0,-100.00,ENE,75,1.0,2.0,70,-99.99,,,-99.99,,2015-05-25 06:31:00,
2015-05-25 02:42:00,65.0,55.0,-100.00,ENE,75,1.0,2.0,70,-99.99,,,-99.99,,2015-05-25 06:42:00,
2015-05-25 02:51:00,65.0,55.0,-100.00,NNW,345,0.0,1.0,71,-99.99,,,-99.99,,2015-05-25 06:51:00,
2015-05-25 03:02:00,65.0,55.0,-100.00,NNW,345,0.0,1.0,71,-99.99,,,-99.99,,2015-05-25 07:02:00,
2015-05-25 03:11:00,63.0,55.0,-100.00,WSW,240,0.0,1.0,74,-99.99,,,-99.99,,2015-05-25 07:11:00,
2015-05-25 03:21:00,63.0,55.0,-100.00,WSW,240,0.0,1.0,74,-99.99,,,-99.99,,2015-05-25 07:21:00,
2015-05-25 03:31:00,64.0,55.0,-100.00,SSE,160,1.0,4.0,71,-99.99,,,-99.99,,2015-05-25 07:31:00,
2015-05-25 03:43:00,64.0,55.0,-100.00,SSE,160,1.0,4.0,71,-99.99,,,-99.99,,2015-05-25 07:43:00,
2015-05-25 03:51:00,63.0,55.0,-100.00,ESE,115,0.0,2.0,73,-99.99,,,-99.99,,2015-05-25 07:51:00,
2015-05-25 04:02:00,66.0,54.0,-100.00,SE,140,2.0,6.0,65,-99.99,,,-99.99,,2015-05-25 08:02:00,
2015-05-25 04:11:00,66.0,55.0,-100.00,SSE,160,1.0,3.0,65,-99.99,,,-99.99,,2015-05-25 08:11:00,
2015-05-25 04:21:00,67.0,55.0,-100.00,South,170,4.0,9.0,64,-99.99,,,-99.99,,2015-05-25 08:21:00,
2015-05-25 04:31:00,67.0,55.0,-100.00,SE,140,4.0,6.0,65,-99.99,,,-99.99,,2015-05-25 08:31:00,